Pipestone, MN

12:47 PM CDT on July 21, 2017 (GMT -0500)
Pipestone Municipal

Weather History for KPQN - July, 2013

Change the Weather History Date:

Tuesday, July 23, 2013

  Actual Average Record
Temperature  
Mean Temperature 64 °F -  
Max Temperature 71 °F 80 °F 95 °F (2006)
Min Temperature 57 °F 60 °F 50 °F (1996)
Degree Days  
Heating Degree Days 1    
Growing Degree Days 14 (Base 50)    
Moisture  
Dew Point 55 °F    
Average Humidity 72    
Maximum Humidity 94    
Minimum Humidity 49    
Precipitation  
Precipitation 0.01 in - - ()
Sea Level Pressure  
Sea Level Pressure 30.02 in    
Wind  
Wind Speed 3 mph (NE)    
Max Wind Speed 9 mph    
Max Gust Speed -    
Visibility 10 miles    
Events Rain    
Averages and records for this station are not official NWS values.
T = Trace of Precipitation, MM = Missing Value Source: NWS Daily Summary

Daily Weather History Graph

Daily Weather History Graph

Search for Another Location

Airport or City:

Trip Planner

Search our weather history database for the weather conditions in past years. The results will help you decide how hot, cold, wet, or windy it might be!

Date:

Astronomy

Jul. 23, 2013 Rise Set
Actual Time 6:04 AM CDT 8:58 PM CDT
Civil Twilight 5:30 AM CDT 9:32 PM CDT
Nautical Twilight 4:46 AM CDT 10:15 PM CDT
Astronomical Twilight 3:55 AM CDT 11:06 PM CDT
Moon 9:21 PM CDT (7/23) 7:18 AM CDT (7/23)
Length of Visible Light 16h 02m
Length of Day
14h 54m
Full, 99% of the Moon is Illuminated
Jul 23
Full
Jul 29
Last Quarter
Aug 6
New
Aug 14
First Quarter
Aug 20
Full

Hourly Weather History & Observations

Time (CDT) Temp. Dew Point Humidity Pressure Visibility Wind Dir Wind Speed Gust Speed Precip Events Conditions
12:13 AM 62.6 °F 55.4 °F 77% 29.94 in 10.0 mi Calm Calm - N/A   Clear
12:33 AM 60.8 °F 55.4 °F 82% 29.94 in 10.0 mi Calm Calm - N/A   Clear
12:53 AM 60.8 °F 55.4 °F 82% 29.94 in 10.0 mi NE 3.5 mph - N/A   Clear
1:13 AM 60.8 °F 55.4 °F 82% 29.94 in 10.0 mi NE 3.5 mph - N/A   Clear
1:33 AM 60.8 °F 55.4 °F 82% 29.95 in 10.0 mi NE 3.5 mph - N/A   Clear
1:53 AM 60.8 °F 55.4 °F 82% 29.95 in 10.0 mi NE 5.8 mph - N/A   Clear
2:13 AM 60.8 °F 55.4 °F 82% 29.94 in 10.0 mi NE 8.1 mph - N/A   Clear
2:33 AM 60.8 °F 55.4 °F 82% 29.94 in 10.0 mi NE 5.8 mph - N/A   Clear
2:53 AM 60.8 °F 55.4 °F 82% 29.98 in 10.0 mi NNW 4.6 mph - N/A   Clear
3:13 AM 59.0 °F 55.4 °F 88% 29.99 in 10.0 mi WNW 4.6 mph - N/A   Clear
3:33 AM 57.2 °F 55.4 °F 94% 29.99 in 10.0 mi Calm Calm - N/A   Clear
3:53 AM 59.0 °F 55.4 °F 88% 29.97 in 10.0 mi NNE 4.6 mph - N/A   Clear
4:13 AM 57.2 °F 55.4 °F 94% 29.96 in 10.0 mi NE 4.6 mph - N/A   Clear
4:33 AM 57.2 °F 55.4 °F 94% 29.95 in 10.0 mi ENE 9.2 mph - N/A   Clear
4:53 AM 57.2 °F 55.4 °F 94% 29.94 in 10.0 mi NE 6.9 mph - N/A   Clear
5:13 AM 57.2 °F 55.4 °F 94% 29.98 in 10.0 mi NW 3.5 mph - N/A   Clear
5:33 AM 59.0 °F 55.4 °F 88% 30.01 in 10.0 mi North 4.6 mph - N/A   Clear
5:53 AM 57.2 °F 55.4 °F 94% 30.00 in 10.0 mi North 3.5 mph - N/A   Clear
6:13 AM 57.2 °F 55.4 °F 94% 30.00 in 10.0 mi Calm Calm - N/A   Clear
6:33 AM 57.2 °F 55.4 °F 94% 30.00 in 10.0 mi NNE 5.8 mph - N/A   Clear
6:53 AM 57.2 °F 55.4 °F 94% 30.00 in 10.0 mi Calm Calm - N/A   Clear
7:13 AM 57.2 °F 55.4 °F 94% 30.01 in 10.0 mi Calm Calm - N/A   Clear
7:33 AM 59.0 °F 55.4 °F 88% 30.01 in 10.0 mi NE 4.6 mph - N/A   Clear
7:53 AM 59.0 °F 55.4 °F 88% 30.01 in 10.0 mi NE 5.8 mph - N/A   Clear
8:13 AM 60.8 °F 55.4 °F 82% 30.00 in 10.0 mi ENE 8.1 mph - N/A   Clear
8:33 AM 60.8 °F 55.4 °F 82% 30.00 in 10.0 mi ENE 5.8 mph - N/A   Clear
8:53 AM 60.8 °F 55.4 °F 82% 30.02 in 10.0 mi ENE 5.8 mph - N/A   Scattered Clouds
9:13 AM 62.6 °F 57.2 °F 82% 30.03 in 10.0 mi NE 5.8 mph - 0.01 in Rain Light Rain
9:33 AM 62.6 °F 55.4 °F 77% 30.03 in 10.0 mi East 6.9 mph - N/A   Scattered Clouds
9:53 AM 62.6 °F 55.4 °F 77% 30.04 in 10.0 mi NE 4.6 mph - N/A   Scattered Clouds
10:13 AM 62.6 °F 55.4 °F 77% 30.02 in 10.0 mi East 4.6 mph - N/A   Scattered Clouds
10:33 AM 62.6 °F 55.4 °F 77% 30.03 in 10.0 mi Calm Calm - N/A Rain Light Rain
10:53 AM 64.4 °F 55.4 °F 73% 30.04 in 10.0 mi ENE 4.6 mph - N/A   Clear
11:13 AM 66.2 °F 55.4 °F 68% 30.04 in 10.0 mi East 4.6 mph - N/A   Scattered Clouds
11:33 AM 66.2 °F 55.4 °F 68% 30.05 in 10.0 mi Calm Calm - N/A   Scattered Clouds
11:53 AM 66.2 °F 55.4 °F 68% 30.04 in 10.0 mi East 5.8 mph - N/A   Scattered Clouds
12:13 PM 68.0 °F 55.4 °F 64% 30.05 in 10.0 mi NNE 3.5 mph - N/A   Mostly Cloudy
12:33 PM 69.8 °F 53.6 °F 56% 30.05 in 10.0 mi ENE 4.6 mph - N/A   Mostly Cloudy
12:53 PM 69.8 °F 53.6 °F 56% 30.05 in 10.0 mi East 3.5 mph - N/A   Scattered Clouds
1:13 PM 69.8 °F 53.6 °F 56% 30.04 in 10.0 mi ENE 6.9 mph - N/A   Scattered Clouds
1:33 PM 69.8 °F 53.6 °F 56% 30.04 in 10.0 mi East 5.8 mph - N/A   Scattered Clouds
1:53 PM 69.8 °F 53.6 °F 56% 30.03 in 10.0 mi NE 9.2 mph - N/A   Scattered Clouds
2:13 PM 71.6 °F 53.6 °F 53% 30.03 in 10.0 mi East 4.6 mph - N/A   Scattered Clouds
2:33 PM 69.8 °F 51.8 °F 53% 30.03 in 10.0 mi ENE 4.6 mph - N/A   Clear
2:53 PM 69.8 °F 51.8 °F 53% 30.04 in 10.0 mi NE 4.6 mph - N/A   Clear
3:13 PM 69.8 °F 50.0 °F 49% 30.04 in 10.0 mi Calm Calm - N/A   Scattered Clouds
3:33 PM 69.8 °F 51.8 °F 53% 30.04 in 10.0 mi NNE 4.6 mph - N/A   Clear
3:52 PM 71.6 °F 51.8 °F 50% 30.04 in 10.0 mi NNE 6.9 mph - N/A   Clear
4:13 PM 71.6 °F 51.8 °F 50% 30.03 in 10.0 mi North 6.9 mph - N/A   Clear
4:33 PM 71.6 °F 51.8 °F 50% 30.03 in 10.0 mi North 4.6 mph - N/A   Scattered Clouds
4:52 PM 71.6 °F 53.6 °F 53% 30.03 in 10.0 mi NNE 6.9 mph - N/A   Scattered Clouds
5:13 PM 71.6 °F 53.6 °F 53% 30.04 in 10.0 mi East 4.6 mph - N/A   Scattered Clouds
5:33 PM 71.6 °F 53.6 °F 53% 30.04 in 10.0 mi North 4.6 mph - N/A   Scattered Clouds
5:54 PM 71.6 °F 53.6 °F 53% 30.04 in 10.0 mi NE 5.8 mph - N/A   Scattered Clouds
6:13 PM 71.6 °F 53.6 °F 53% 30.04 in 10.0 mi NNE 4.6 mph - N/A   Clear
6:33 PM 71.6 °F 53.6 °F 53% 30.03 in 10.0 mi NNE 5.8 mph - N/A   Scattered Clouds
6:53 PM 71.6 °F 53.6 °F 53% 30.03 in 10.0 mi ENE 3.5 mph - N/A   Mostly Cloudy
7:13 PM 71.6 °F 55.4 °F 57% 30.03 in 10.0 mi NE 5.8 mph - N/A   Mostly Cloudy
7:33 PM 69.8 °F 55.4 °F 60% 30.03 in 10.0 mi ENE 3.5 mph - N/A   Scattered Clouds
7:53 PM 69.8 °F 55.4 °F 60% 30.03 in 10.0 mi Calm Calm - N/A   Clear
8:13 PM 69.8 °F 55.4 °F 60% 30.03 in 10.0 mi East 3.5 mph - N/A   Clear
8:33 PM 69.8 °F 57.2 °F 64% 30.04 in 10.0 mi ENE 3.5 mph - N/A   Clear
8:53 PM 68.0 °F 57.2 °F 68% 30.04 in 10.0 mi Calm Calm - N/A   Clear
9:13 PM 66.2 °F 57.2 °F 73% 30.04 in 10.0 mi Calm Calm - N/A   Clear
9:33 PM 66.2 °F 57.2 °F 73% 30.05 in 10.0 mi Calm Calm - N/A   Clear
9:53 PM 64.4 °F 57.2 °F 77% 30.06 in 10.0 mi Calm Calm - N/A   Scattered Clouds
10:13 PM 64.4 °F 57.2 °F 77% 30.06 in 10.0 mi Calm Calm - N/A   Mostly Cloudy
10:33 PM 64.4 °F 55.4 °F 73% 30.06 in 10.0 mi Calm Calm - N/A   Clear
10:53 PM 64.4 °F 55.4 °F 73% 30.06 in 10.0 mi Calm Calm - N/A   Clear
11:13 PM 64.4 °F 55.4 °F 73% 30.06 in 10.0 mi Calm Calm - N/A   Clear
11:33 PM 62.6 °F 55.4 °F 77% 30.06 in 10.0 mi Calm Calm - N/A   Clear
11:53 PM 62.6 °F 55.4 °F 77% 30.06 in 10.0 mi Calm Calm - N/A   Clear